Location: Bush Observatory
(40.2653°N, 94.3194°W)
Time: 14:35:29
(UTC-06:00)

Vanguard 1 - Visible Passes

Search period start: 27 February 2017 00:00
Search period end: 09 March 2017 00:00
Orbit: 653 x 3831 km, 34.3° (Epoch: 27 February)

Date Brightness Start Highest point End Pass type
(mag) Time Alt. Az. Time Alt. Az. Time Alt. Az.
27 Feb 12.6 19:18:04 10° W 19:32:39 70° S 19:49:56 22° ESE visible
27 Feb 13.0 21:40:18 10° W 21:58:10 50° SSW 22:02:39 47° S visible
28 Feb 13.8 00:07:14 10° W 00:15:23 20° WSW 00:15:23 20° WSW visible
28 Feb 12.7 19:39:15 10° W 19:54:10 66° SSW 20:09:53 25° ESE visible
28 Feb 13.1 22:01:56 10° W 22:19:26 43° SSW 22:22:37 42° SSW visible
01 Mar 14.0 00:31:34 10° W 00:35:21 13° WSW 00:35:21 13° WSW visible
01 Mar 12.8 20:00:29 10° W 20:15:39 61° SSW 20:29:54 28° SE visible
01 Mar 13.3 22:23:48 10° W 22:40:36 36° SW 22:42:38 35° SSW visible
02 Mar 12.9 20:21:46 10° W 20:37:05 55° SSW 20:50:00 29° SE visible
02 Mar 13.5 22:46:04 10° W 23:01:42 29° SW 23:02:45 29° SW visible
03 Mar 12.5 18:21:51 10° W 18:33:50 67° S 18:54:48 10° ESE visible
03 Mar 13.0 20:43:10 10° W 20:58:29 48° SSW 21:10:09 29° SSE visible
03 Mar 13.7 23:09:04 10° W 23:22:44 22° SW 23:22:55 22° SW visible
04 Mar 12.6 18:42:57 10° W 18:55:16 63° SSW 19:16:18 10° ESE visible
04 Mar 13.2 21:04:43 10° W 21:19:48 41° SSW 21:30:25 28° SSE visible
04 Mar 14.0 23:33:32 10° WSW 23:43:10 15° SW 23:43:10 15° SW visible
05 Mar 12.7 19:04:06 10° W 19:16:41 57° SSW 19:37:34 10° SE visible
05 Mar 13.4 21:26:34 10° W 21:41:04 33° SW 21:50:45 25° S visible
06 Mar 12.8 19:25:20 10° W 19:38:04 51° SSW 19:58:23 10° SE visible
06 Mar 13.6 21:48:50 10° W 22:02:18 26° SW 22:11:10 21° S visible
07 Mar 13.0 19:46:42 10° W 19:59:26 44° SSW 20:18:55 11° SE visible
07 Mar 13.8 22:11:54 10° W 22:23:30 20° SW 22:31:42 16° SSW visible
08 Mar 13.2 20:08:14 10° W 20:20:47 37° SSW 20:39:27 10° SSE visible
08 Mar 14.0 22:36:51 10° WSW 22:44:43 14° SW 22:52:19 11° SSW visible
